Year,Month,Day,Hour,Minute,Value (Times are PST for temperature in C)
2018,10,22,00,00,6.20
2018,10,22,00,01,6.20
2018,10,22,00,02,6.20
2018,10,22,00,03,6.20
2018,10,22,00,04,6.20
2018,10,22,00,05,6.20
2018,10,22,00,06,6.20
2018,10,22,00,07,6.20
2018,10,22,00,08,6.20
2018,10,22,00,09,6.20
2018,10,22,00,10,6.20
2018,10,22,00,11,6.20
2018,10,22,00,12,6.20
2018,10,22,00,13,6.20
2018,10,22,00,14,6.20
2018,10,22,00,15,6.20
2018,10,22,00,16,6.20
2018,10,22,00,17,6.20
2018,10,22,00,18,6.20
2018,10,22,00,19,6.20
2018,10,22,00,20,6.10
2018,10,22,00,21,6.10
2018,10,22,00,22,6.10
2018,10,22,00,23,6.10
2018,10,22,00,24,6.10
2018,10,22,00,25,6.10
2018,10,22,00,26,6.10
2018,10,22,00,27,6.10
2018,10,22,00,28,6.10
2018,10,22,00,29,6.10
2018,10,22,00,30,6.10
2018,10,22,00,31,6.10
2018,10,22,00,32,6.10
2018,10,22,00,33,6.10
2018,10,22,00,34,6.10
2018,10,22,00,35,6.10
2018,10,22,00,36,6.10
2018,10,22,00,37,6.10
2018,10,22,00,38,6.10
2018,10,22,00,39,6.00
2018,10,22,00,40,6.00
2018,10,22,00,41,6.00
2018,10,22,00,42,6.00
2018,10,22,00,43,5.90
2018,10,22,00,44,5.90
2018,10,22,00,45,5.90
2018,10,22,00,46,5.90
2018,10,22,00,47,5.80
2018,10,22,00,48,5.80
2018,10,22,00,49,5.80
2018,10,22,00,50,5.80
2018,10,22,00,51,5.80
2018,10,22,00,52,5.80
2018,10,22,00,53,5.80
2018,10,22,00,54,5.80
2018,10,22,00,55,5.70
2018,10,22,00,56,5.70
2018,10,22,00,57,5.70
2018,10,22,00,58,5.70
2018,10,22,00,59,5.70
2018,10,22,01,00,5.70
2018,10,22,01,01,5.70
2018,10,22,01,02,5.60
2018,10,22,01,03,5.60
2018,10,22,01,04,5.60
2018,10,22,01,05,5.60
2018,10,22,01,06,5.60
2018,10,22,01,07,5.60
2018,10,22,01,08,5.60
2018,10,22,01,09,5.60
2018,10,22,01,10,5.60
2018,10,22,01,11,5.60
2018,10,22,01,12,5.60
2018,10,22,01,13,5.60
2018,10,22,01,14,5.50
2018,10,22,01,15,5.50
2018,10,22,01,16,5.50
2018,10,22,01,17,5.50
2018,10,22,01,18,5.50
2018,10,22,01,19,5.50
2018,10,22,01,20,5.50
2018,10,22,01,21,5.50
2018,10,22,01,22,5.50
2018,10,22,01,23,5.50
2018,10,22,01,24,5.40
2018,10,22,01,25,5.40
2018,10,22,01,26,5.40
2018,10,22,01,27,5.30
2018,10,22,01,28,5.30
2018,10,22,01,29,5.30
2018,10,22,01,30,5.30
2018,10,22,01,31,5.30
2018,10,22,01,32,5.20
2018,10,22,01,33,5.20
2018,10,22,01,34,5.20
2018,10,22,01,35,5.20
2018,10,22,01,36,5.20
2018,10,22,01,37,5.20
2018,10,22,01,38,5.20
2018,10,22,01,39,5.10
2018,10,22,01,40,5.10
2018,10,22,01,41,5.10
2018,10,22,01,42,5.10
2018,10,22,01,43,5.10
2018,10,22,01,44,5.10
2018,10,22,01,45,5.10
2018,10,22,01,46,5.10
2018,10,22,01,47,5.10
2018,10,22,01,48,5.10
2018,10,22,01,49,5.10
2018,10,22,01,50,5.10
2018,10,22,01,51,5.10
2018,10,22,01,52,5.10
2018,10,22,01,53,5.10
2018,10,22,01,54,5.10
2018,10,22,01,55,5.10
2018,10,22,01,56,5.10
2018,10,22,01,57,5.10
2018,10,22,01,58,5.10
2018,10,22,01,59,5.10
2018,10,22,02,00,5.10
2018,10,22,02,01,5.10
2018,10,22,02,02,5.10
2018,10,22,02,03,5.10
2018,10,22,02,04,5.10
2018,10,22,02,05,5.10
2018,10,22,02,06,5.00
2018,10,22,02,07,4.90
2018,10,22,02,08,4.90
2018,10,22,02,09,4.90
2018,10,22,02,10,4.90
2018,10,22,02,11,4.90
2018,10,22,02,12,4.90
2018,10,22,02,13,4.90
2018,10,22,02,14,4.90
2018,10,22,02,15,4.90
2018,10,22,02,16,4.90
2018,10,22,02,17,4.90
2018,10,22,02,18,4.90
2018,10,22,02,19,4.90
2018,10,22,02,20,4.90
2018,10,22,02,21,4.90
2018,10,22,02,22,4.90
2018,10,22,02,23,4.90
2018,10,22,02,24,4.80
2018,10,22,02,25,4.80
2018,10,22,02,26,4.80
2018,10,22,02,27,4.80
2018,10,22,02,28,4.70
2018,10,22,02,29,4.70
2018,10,22,02,30,4.70
2018,10,22,02,31,4.70
2018,10,22,02,32,4.60
2018,10,22,02,33,4.60
2018,10,22,02,34,4.60
2018,10,22,02,35,4.60
2018,10,22,02,36,4.60
2018,10,22,02,37,4.60
2018,10,22,02,38,4.60
2018,10,22,02,39,4.60
2018,10,22,02,40,4.60
2018,10,22,02,41,4.50
2018,10,22,02,42,4.50
2018,10,22,02,43,4.50
2018,10,22,02,44,4.50
2018,10,22,02,45,4.50
2018,10,22,02,46,4.50
2018,10,22,02,47,4.50
2018,10,22,02,48,4.50
2018,10,22,02,49,4.50
2018,10,22,02,50,4.50
2018,10,22,02,51,4.50
2018,10,22,02,52,4.50
2018,10,22,02,53,4.50
2018,10,22,02,54,4.50
2018,10,22,02,55,4.50
2018,10,22,02,56,4.50
2018,10,22,02,57,4.50
2018,10,22,02,58,4.40
2018,10,22,02,59,4.40
2018,10,22,03,00,4.40
2018,10,22,03,01,4.40
2018,10,22,03,02,4.40
2018,10,22,03,03,4.30
2018,10,22,03,04,4.30
2018,10,22,03,05,4.30
2018,10,22,03,06,4.30
2018,10,22,03,07,4.30
2018,10,22,03,08,4.30
2018,10,22,03,09,4.30
2018,10,22,03,10,4.40
2018,10,22,03,11,4.40
2018,10,22,03,12,4.50
2018,10,22,03,13,4.50
2018,10,22,03,14,4.60
2018,10,22,03,15,4.60
2018,10,22,03,16,4.60
2018,10,22,03,17,4.60
2018,10,22,03,18,4.60
2018,10,22,03,19,4.60
2018,10,22,03,20,4.60
2018,10,22,03,21,4.60
2018,10,22,03,22,4.60
2018,10,22,03,23,4.60
2018,10,22,03,24,4.60
2018,10,22,03,25,4.60
2018,10,22,03,26,4.60
2018,10,22,03,27,4.60
2018,10,22,03,28,4.60
2018,10,22,03,29,4.60
2018,10,22,03,30,4.60
2018,10,22,03,31,4.60
2018,10,22,03,32,4.50
2018,10,22,03,33,4.50
2018,10,22,03,34,4.50
2018,10,22,03,35,4.50
2018,10,22,03,36,4.50
2018,10,22,03,37,4.40
2018,10,22,03,38,4.40
2018,10,22,03,39,4.40
2018,10,22,03,40,4.40
2018,10,22,03,41,4.30
2018,10,22,03,42,4.30
2018,10,22,03,43,4.30
2018,10,22,03,44,4.30
2018,10,22,03,45,4.30
2018,10,22,03,46,4.30
2018,10,22,03,47,4.30
2018,10,22,03,48,4.30
2018,10,22,03,49,4.20
2018,10,22,03,50,4.20
2018,10,22,03,51,4.20
2018,10,22,03,52,4.20
2018,10,22,03,53,4.20
2018,10,22,03,54,4.20
2018,10,22,03,55,4.20
2018,10,22,03,56,4.20
2018,10,22,03,57,4.20
2018,10,22,03,58,4.20
2018,10,22,03,59,4.20
2018,10,22,04,00,4.20
2018,10,22,04,01,4.20
2018,10,22,04,02,4.20
2018,10,22,04,03,4.20
2018,10,22,04,04,4.20
2018,10,22,04,05,4.20
2018,10,22,04,06,4.20
2018,10,22,04,07,4.20
2018,10,22,04,08,4.20
2018,10,22,04,09,4.20
2018,10,22,04,10,4.30
2018,10,22,04,11,4.30
2018,10,22,04,12,4.30
2018,10,22,04,13,4.30
2018,10,22,04,14,4.20
2018,10,22,04,15,4.20
2018,10,22,04,16,4.20
2018,10,22,04,17,4.20
2018,10,22,04,18,4.20
2018,10,22,04,19,4.20
2018,10,22,04,20,4.20
2018,10,22,04,21,4.10
2018,10,22,04,22,4.10
2018,10,22,04,23,4.10
2018,10,22,04,24,4.00
2018,10,22,04,25,4.00
2018,10,22,04,26,4.00
2018,10,22,04,27,4.00
2018,10,22,04,28,4.00
2018,10,22,04,29,4.00
2018,10,22,04,30,4.00
2018,10,22,04,31,4.00
2018,10,22,04,32,4.00
2018,10,22,04,33,4.00
2018,10,22,04,34,4.10
2018,10,22,04,35,4.10
2018,10,22,04,36,4.10
2018,10,22,04,37,4.10
2018,10,22,04,38,4.10
2018,10,22,04,39,4.10
2018,10,22,04,40,4.10
2018,10,22,04,41,4.10
2018,10,22,04,42,4.10
2018,10,22,04,43,4.10
2018,10,22,04,44,4.10
2018,10,22,04,45,4.10
2018,10,22,04,46,4.10
2018,10,22,04,47,4.10
2018,10,22,04,48,4.10
2018,10,22,04,49,4.10
2018,10,22,04,50,4.10
2018,10,22,04,51,4.00
2018,10,22,04,52,4.00
2018,10,22,04,53,4.00
2018,10,22,04,54,4.00
2018,10,22,04,55,4.00
2018,10,22,04,56,3.90
2018,10,22,04,57,3.90
2018,10,22,04,58,3.90
2018,10,22,04,59,3.90
2018,10,22,05,00,3.90
2018,10,22,05,01,3.90
2018,10,22,05,02,3.90
2018,10,22,05,03,3.90
2018,10,22,05,04,3.90
2018,10,22,05,05,3.90
2018,10,22,05,06,3.90
2018,10,22,05,07,3.90
2018,10,22,05,08,3.90
2018,10,22,05,09,3.90
2018,10,22,05,10,3.80
2018,10,22,05,11,3.80
2018,10,22,05,12,3.80
2018,10,22,05,13,3.80
2018,10,22,05,14,3.80
2018,10,22,05,15,3.80
2018,10,22,05,16,3.80
2018,10,22,05,17,3.80
2018,10,22,05,18,3.80
2018,10,22,05,19,3.80
2018,10,22,05,20,3.80
2018,10,22,05,21,3.80
2018,10,22,05,22,3.80
2018,10,22,05,23,3.80
2018,10,22,05,24,3.80
2018,10,22,05,25,3.80
2018,10,22,05,26,3.80
2018,10,22,05,27,3.80
2018,10,22,05,28,3.80
2018,10,22,05,29,3.80
2018,10,22,05,30,3.80
2018,10,22,05,31,3.80
2018,10,22,05,32,3.80
2018,10,22,05,33,3.80
2018,10,22,05,34,3.80
2018,10,22,05,35,3.80
2018,10,22,05,36,3.80
2018,10,22,05,37,3.80
2018,10,22,05,38,3.80
2018,10,22,05,39,3.80
2018,10,22,05,40,3.80
2018,10,22,05,41,3.80
2018,10,22,05,42,3.80
2018,10,22,05,43,3.80
2018,10,22,05,44,3.80
2018,10,22,05,45,3.80
2018,10,22,05,46,3.80
2018,10,22,05,47,3.80
2018,10,22,05,48,3.80
2018,10,22,05,49,3.80
2018,10,22,05,50,3.80
2018,10,22,05,51,3.80
2018,10,22,05,52,3.80
2018,10,22,05,53,3.70
2018,10,22,05,54,3.70
2018,10,22,05,55,3.60
2018,10,22,05,56,3.60
2018,10,22,05,57,3.50
2018,10,22,05,58,3.50
2018,10,22,05,59,3.50
2018,10,22,06,00,3.40
2018,10,22,06,01,3.40
2018,10,22,06,02,3.40
2018,10,22,06,03,3.30
2018,10,22,06,04,3.30
2018,10,22,06,05,3.30
2018,10,22,06,06,3.30
2018,10,22,06,07,3.30
2018,10,22,06,08,3.30
2018,10,22,06,09,3.20
2018,10,22,06,10,3.20
2018,10,22,06,11,3.20
2018,10,22,06,12,3.20
2018,10,22,06,13,3.10
2018,10,22,06,14,3.10
2018,10,22,06,15,3.10
2018,10,22,06,16,3.10
2018,10,22,06,17,3.10
2018,10,22,06,18,3.10
2018,10,22,06,19,3.10
2018,10,22,06,20,3.10
2018,10,22,06,21,3.10
2018,10,22,06,22,3.10
2018,10,22,06,23,3.10
2018,10,22,06,24,3.10
2018,10,22,06,25,3.10
2018,10,22,06,26,3.10
2018,10,22,06,27,3.10
2018,10,22,06,28,3.10
2018,10,22,06,29,3.10
2018,10,22,06,30,3.10
2018,10,22,06,31,3.10
2018,10,22,06,32,3.10
2018,10,22,06,33,3.10
2018,10,22,06,34,3.10
2018,10,22,06,35,3.10
2018,10,22,06,36,3.10
2018,10,22,06,37,3.10
2018,10,22,06,38,3.10
2018,10,22,06,39,3.10
2018,10,22,06,40,3.10
2018,10,22,06,41,3.00
2018,10,22,06,42,2.90
2018,10,22,06,43,2.90
2018,10,22,06,44,2.90
2018,10,22,06,45,2.90
2018,10,22,06,46,2.90
2018,10,22,06,47,2.90
2018,10,22,06,48,2.90
2018,10,22,06,49,2.90
2018,10,22,06,50,2.90
2018,10,22,06,51,2.90
2018,10,22,06,52,2.90
2018,10,22,06,53,2.90
2018,10,22,06,54,2.90
2018,10,22,06,55,3.00
2018,10,22,06,56,3.10
2018,10,22,06,57,3.10
2018,10,22,06,58,3.10
2018,10,22,06,59,3.20
2018,10,22,07,00,3.20
2018,10,22,07,01,3.30
2018,10,22,07,02,3.30
2018,10,22,07,03,3.30
2018,10,22,07,04,3.30
2018,10,22,07,05,3.30
2018,10,22,07,06,3.30
2018,10,22,07,07,3.30
2018,10,22,07,08,3.30
2018,10,22,07,09,3.30
2018,10,22,07,10,3.30
2018,10,22,07,11,3.30
2018,10,22,07,12,3.20
2018,10,22,07,13,3.20
2018,10,22,07,14,3.20
2018,10,22,07,15,3.10
2018,10,22,07,16,3.10
2018,10,22,07,17,3.10
2018,10,22,07,18,3.10
2018,10,22,07,19,3.10
2018,10,22,07,20,3.00
2018,10,22,07,21,2.90
2018,10,22,07,22,2.90
2018,10,22,07,23,2.90
2018,10,22,07,24,2.90
2018,10,22,07,25,2.90
2018,10,22,07,26,2.90
2018,10,22,07,27,2.90
2018,10,22,07,28,2.90
2018,10,22,07,29,2.90
2018,10,22,07,30,2.90
2018,10,22,07,31,2.90
2018,10,22,07,32,2.90
2018,10,22,07,33,2.90
2018,10,22,07,34,2.90
2018,10,22,07,35,2.90
2018,10,22,07,36,2.90
2018,10,22,07,37,2.90
2018,10,22,07,38,2.80
2018,10,22,07,39,2.80
2018,10,22,07,40,2.80
2018,10,22,07,41,2.80
2018,10,22,07,42,2.80
2018,10,22,07,43,2.70
2018,10,22,07,44,2.70
2018,10,22,07,45,2.70
2018,10,22,07,46,2.70
2018,10,22,07,47,2.70
2018,10,22,07,48,2.70
2018,10,22,07,49,2.70
2018,10,22,07,50,2.70
2018,10,22,07,51,2.70
2018,10,22,07,52,2.80
2018,10,22,07,53,2.80
2018,10,22,07,54,2.80
2018,10,22,07,55,2.80
2018,10,22,07,56,2.80
2018,10,22,07,57,2.80
2018,10,22,07,58,2.80
2018,10,22,07,59,2.80
2018,10,22,08,00,2.80
2018,10,22,08,01,2.90
2018,10,22,08,02,2.90
2018,10,22,08,03,2.90
2018,10,22,08,04,2.90
2018,10,22,08,05,2.90
2018,10,22,08,06,3.00
2018,10,22,08,07,3.10
2018,10,22,08,08,3.10
2018,10,22,08,09,3.10
2018,10,22,08,10,3.10
2018,10,22,08,11,3.10
2018,10,22,08,12,3.10
2018,10,22,08,13,3.10
2018,10,22,08,14,3.10
2018,10,22,08,15,3.10
2018,10,22,08,16,3.20
2018,10,22,08,17,3.20
2018,10,22,08,18,3.30
2018,10,22,08,19,3.30
2018,10,22,08,20,3.40
2018,10,22,08,21,3.40
2018,10,22,08,22,3.40
2018,10,22,08,23,3.50
2018,10,22,08,24,3.50
2018,10,22,08,25,3.60
2018,10,22,08,26,3.70
2018,10,22,08,27,3.70
2018,10,22,08,28,3.80
2018,10,22,08,29,3.80
2018,10,22,08,30,3.90
2018,10,22,08,31,3.90
2018,10,22,08,32,4.00
2018,10,22,08,33,4.00
2018,10,22,08,34,4.10
2018,10,22,08,35,4.20
2018,10,22,08,36,4.20
2018,10,22,08,37,4.30
2018,10,22,08,38,4.40
2018,10,22,08,39,4.40
2018,10,22,08,40,4.50
2018,10,22,08,41,4.60
2018,10,22,08,42,4.60
2018,10,22,08,43,4.60
2018,10,22,08,44,4.60
2018,10,22,08,45,4.60
2018,10,22,08,46,4.60
2018,10,22,08,47,4.60
2018,10,22,08,48,4.60
2018,10,22,08,49,4.60
2018,10,22,08,50,4.70
2018,10,22,08,51,4.70
2018,10,22,08,52,4.80
2018,10,22,08,53,4.80
2018,10,22,08,54,4.90
2018,10,22,08,55,5.00
2018,10,22,08,56,5.10
2018,10,22,08,57,5.10
2018,10,22,08,58,5.20
2018,10,22,08,59,5.30
2018,10,22,09,00,5.30
2018,10,22,09,01,5.30
2018,10,22,09,02,5.30
2018,10,22,09,03,5.40
2018,10,22,09,04,5.40
2018,10,22,09,05,5.50
2018,10,22,09,06,5.60
2018,10,22,09,07,5.70
2018,10,22,09,08,5.80
2018,10,22,09,09,5.90
2018,10,22,09,10,6.00
2018,10,22,09,11,6.10
2018,10,22,09,12,6.20
2018,10,22,09,13,6.30
2018,10,22,09,14,6.40
2018,10,22,09,15,6.50
2018,10,22,09,16,6.60
2018,10,22,09,17,6.60
2018,10,22,09,18,6.70
2018,10,22,09,19,6.70
2018,10,22,09,20,6.80
2018,10,22,09,21,6.80
2018,10,22,09,22,6.80
2018,10,22,09,23,6.90
2018,10,22,09,24,7.00
2018,10,22,09,25,7.00
2018,10,22,09,26,7.10
2018,10,22,09,27,7.20
2018,10,22,09,28,7.30
2018,10,22,09,29,7.30
2018,10,22,09,30,7.40
2018,10,22,09,31,7.50
2018,10,22,09,32,7.50
2018,10,22,09,33,7.60
2018,10,22,09,34,7.70
2018,10,22,09,35,7.80
2018,10,22,09,36,7.80
2018,10,22,09,37,7.90
2018,10,22,09,38,8.00
2018,10,22,09,39,8.00
2018,10,22,09,40,8.10
2018,10,22,09,41,8.20
2018,10,22,09,42,8.30
2018,10,22,09,43,8.40
2018,10,22,09,44,8.50
2018,10,22,09,45,8.50
2018,10,22,09,46,8.60
2018,10,22,09,47,8.70
2018,10,22,09,48,8.70
2018,10,22,09,49,8.80
2018,10,22,09,50,8.90
2018,10,22,09,51,9.00
2018,10,22,09,52,9.00
2018,10,22,09,53,9.10
2018,10,22,09,54,9.20
2018,10,22,09,55,9.20
2018,10,22,09,56,9.20
2018,10,22,09,57,9.20
2018,10,22,09,58,9.20
2018,10,22,09,59,9.30
2018,10,22,10,00,9.30
2018,10,22,10,01,9.30
2018,10,22,10,02,9.40
2018,10,22,10,03,9.40
2018,10,22,10,04,9.40
2018,10,22,10,05,9.40
2018,10,22,10,06,9.50
2018,10,22,10,07,9.50
2018,10,22,10,08,9.50
2018,10,22,10,09,9.60
2018,10,22,10,10,9.60
2018,10,22,10,11,9.60
2018,10,22,10,12,9.70
2018,10,22,10,13,9.70
2018,10,22,10,14,9.60
2018,10,22,10,15,9.60
2018,10,22,10,16,9.60
2018,10,22,10,17,9.60
2018,10,22,10,18,9.70
2018,10,22,10,19,9.70
2018,10,22,10,20,9.70
2018,10,22,10,21,9.70
2018,10,22,10,22,9.70
2018,10,22,10,23,9.70
2018,10,22,10,24,9.70
2018,10,22,10,25,9.70
2018,10,22,10,26,9.70
2018,10,22,10,27,9.70
2018,10,22,10,28,9.70
2018,10,22,10,29,9.70
2018,10,22,10,30,9.70
2018,10,22,10,31,9.70
2018,10,22,10,32,9.70
2018,10,22,10,33,9.70
2018,10,22,10,34,9.70
2018,10,22,10,35,9.80
2018,10,22,10,36,9.80
2018,10,22,10,37,9.70
2018,10,22,10,38,9.80
2018,10,22,10,39,9.80
2018,10,22,10,40,9.80
2018,10,22,10,41,9.80
2018,10,22,10,42,9.80
2018,10,22,10,43,9.80
2018,10,22,10,44,9.80
2018,10,22,10,45,9.80
2018,10,22,10,46,9.80
2018,10,22,10,47,9.80
2018,10,22,10,48,9.80
2018,10,22,10,49,9.90
2018,10,22,10,50,9.90
2018,10,22,10,51,9.90
2018,10,22,10,52,9.90
2018,10,22,10,53,9.90
2018,10,22,10,54,10.10
2018,10,22,10,55,10.10
2018,10,22,10,56,10.10
2018,10,22,10,57,10.10
2018,10,22,10,58,10.10
2018,10,22,10,59,10.10
2018,10,22,11,00,10.10
2018,10,22,11,01,10.10
2018,10,22,11,02,10.10
2018,10,22,11,03,10.10
2018,10,22,11,04,10.10
2018,10,22,11,05,10.10
2018,10,22,11,06,10.10
2018,10,22,11,07,10.20
2018,10,22,11,08,10.20
2018,10,22,11,09,10.30
2018,10,22,11,10,10.30
2018,10,22,11,11,10.40
2018,10,22,11,12,10.40
2018,10,22,11,13,10.40
2018,10,22,11,14,10.40
2018,10,22,11,15,10.50
2018,10,22,11,16,10.60
2018,10,22,11,17,10.60
2018,10,22,11,18,10.70
2018,10,22,11,19,10.80
2018,10,22,11,20,10.90
2018,10,22,11,21,10.90
2018,10,22,11,22,10.90
2018,10,22,11,23,10.90
2018,10,22,11,24,10.90
2018,10,22,11,25,10.90
2018,10,22,11,26,11.00
2018,10,22,11,27,11.10
2018,10,22,11,28,11.10
2018,10,22,11,29,11.10
2018,10,22,11,30,11.10
2018,10,22,11,31,11.10
2018,10,22,11,32,11.10
2018,10,22,11,33,11.10
2018,10,22,11,34,11.10
2018,10,22,11,35,11.20
2018,10,22,11,36,11.10
2018,10,22,11,37,11.10
2018,10,22,11,38,11.20
2018,10,22,11,39,11.20
2018,10,22,11,40,11.20
2018,10,22,11,41,11.30
2018,10,22,11,42,11.30
2018,10,22,11,43,11.40
2018,10,22,11,44,11.40
2018,10,22,11,45,11.30
2018,10,22,11,46,11.20
2018,10,22,11,47,11.20
2018,10,22,11,48,11.20
2018,10,22,11,49,11.10
2018,10,22,11,50,11.20
2018,10,22,11,51,11.20
2018,10,22,11,52,11.20
2018,10,22,11,53,11.30
2018,10,22,11,54,11.40
2018,10,22,11,55,11.40
2018,10,22,11,56,11.50
2018,10,22,11,57,11.60
2018,10,22,11,58,11.60
2018,10,22,11,59,11.60
2018,10,22,12,00,11.60
2018,10,22,12,01,11.60
2018,10,22,12,02,11.60
2018,10,22,12,03,11.60
2018,10,22,12,04,11.60
2018,10,22,12,05,11.60
2018,10,22,12,06,11.60
2018,10,22,12,07,11.60
2018,10,22,12,08,11.60
2018,10,22,12,09,11.60
2018,10,22,12,10,11.70
2018,10,22,12,11,11.70
2018,10,22,12,12,11.80
2018,10,22,12,13,11.80
2018,10,22,12,14,11.80
2018,10,22,12,15,11.80
2018,10,22,12,16,11.80
2018,10,22,12,17,11.80
2018,10,22,12,18,11.80
2018,10,22,12,19,11.80
2018,10,22,12,20,11.90
2018,10,22,12,21,12.00
2018,10,22,12,22,12.00
2018,10,22,12,23,12.10
2018,10,22,12,24,12.10
2018,10,22,12,25,12.10
2018,10,22,12,26,12.00
2018,10,22,12,27,12.00
2018,10,22,12,28,12.00
2018,10,22,12,29,12.00
2018,10,22,12,30,12.10
2018,10,22,12,31,12.10
2018,10,22,12,32,12.20
2018,10,22,12,33,12.20
2018,10,22,12,34,12.30
2018,10,22,12,35,12.30
2018,10,22,12,36,12.30
2018,10,22,12,37,12.30
2018,10,22,12,38,12.30
2018,10,22,12,39,12.30
2018,10,22,12,40,12.30
2018,10,22,12,41,12.30
2018,10,22,12,42,12.20
2018,10,22,12,43,12.20
2018,10,22,12,44,12.20
2018,10,22,12,45,12.10
2018,10,22,12,46,12.10
2018,10,22,12,47,12.20
2018,10,22,12,48,12.20
2018,10,22,12,49,12.30
2018,10,22,12,50,12.30
2018,10,22,12,51,12.30
2018,10,22,12,52,12.30
2018,10,22,12,53,12.40
2018,10,22,12,54,12.40
2018,10,22,12,55,12.40
2018,10,22,12,56,12.50
2018,10,22,12,57,12.50
2018,10,22,12,58,12.40
2018,10,22,12,59,12.40
2018,10,22,13,00,12.30
2018,10,22,13,01,12.30
2018,10,22,13,02,12.20
2018,10,22,13,03,12.20
2018,10,22,13,04,12.10
2018,10,22,13,05,12.10
2018,10,22,13,06,12.00
2018,10,22,13,07,11.90
2018,10,22,13,08,11.80
2018,10,22,13,09,11.80
2018,10,22,13,10,11.80
2018,10,22,13,11,11.90
2018,10,22,13,12,11.90
2018,10,22,13,13,11.90
2018,10,22,13,14,11.90
2018,10,22,13,15,11.90
2018,10,22,13,16,11.90
2018,10,22,13,17,12.00
2018,10,22,13,18,12.00
2018,10,22,13,19,12.10
2018,10,22,13,20,12.10
2018,10,22,13,21,12.20
2018,10,22,13,22,12.30
2018,10,22,13,23,12.30
2018,10,22,13,24,12.30
2018,10,22,13,25,12.30
2018,10,22,13,26,12.30
2018,10,22,13,27,12.30
2018,10,22,13,28,12.40
2018,10,22,13,29,12.40
2018,10,22,13,30,12.50
2018,10,22,13,31,12.50
2018,10,22,13,32,12.40
2018,10,22,13,33,12.50
2018,10,22,13,34,12.50
2018,10,22,13,35,12.50
2018,10,22,13,36,12.60
2018,10,22,13,37,12.60
2018,10,22,13,38,12.70
2018,10,22,13,39,12.70
2018,10,22,13,40,12.70
2018,10,22,13,41,12.70
2018,10,22,13,42,12.60
2018,10,22,13,43,12.60
2018,10,22,13,44,12.60
2018,10,22,13,45,12.60
2018,10,22,13,46,12.60
2018,10,22,13,47,12.60
2018,10,22,13,48,12.50
2018,10,22,13,49,12.50
2018,10,22,13,50,12.40
2018,10,22,13,51,12.40
2018,10,22,13,52,12.40
2018,10,22,13,53,12.50
2018,10,22,13,54,12.50
2018,10,22,13,55,12.50
2018,10,22,13,56,12.50
2018,10,22,13,57,12.60
2018,10,22,13,58,12.60
2018,10,22,13,59,12.50
2018,10,22,14,00,12.40
2018,10,22,14,01,12.40
2018,10,22,14,02,12.40
2018,10,22,14,03,12.40
2018,10,22,14,04,12.40
2018,10,22,14,05,12.30
2018,10,22,14,06,12.10
2018,10,22,14,07,12.00
2018,10,22,14,08,11.90
2018,10,22,14,09,11.90
2018,10,22,14,10,11.90
2018,10,22,14,11,11.90
2018,10,22,14,12,11.80
2018,10,22,14,13,11.80
2018,10,22,14,14,11.80
2018,10,22,14,15,11.80
2018,10,22,14,16,11.80
2018,10,22,14,17,11.80
2018,10,22,14,18,11.80
2018,10,22,14,19,11.80
2018,10,22,14,20,11.80
2018,10,22,14,21,11.80
2018,10,22,14,22,11.80
2018,10,22,14,23,11.80
2018,10,22,14,24,11.80
2018,10,22,14,25,11.80
2018,10,22,14,26,11.80
2018,10,22,14,27,11.90
2018,10,22,14,28,11.90
2018,10,22,14,29,12.00
2018,10,22,14,30,12.00
2018,10,22,14,31,12.10
2018,10,22,14,32,12.10
2018,10,22,14,33,12.20
2018,10,22,14,34,12.20
2018,10,22,14,35,12.20
2018,10,22,14,36,12.30
2018,10,22,14,37,12.30
2018,10,22,14,38,12.30
2018,10,22,14,39,12.30
2018,10,22,14,40,12.30
2018,10,22,14,41,12.40
2018,10,22,14,42,12.40
2018,10,22,14,43,12.40
2018,10,22,14,44,12.40
2018,10,22,14,45,12.40
2018,10,22,14,46,12.40
2018,10,22,14,47,12.40
2018,10,22,14,48,12.40
2018,10,22,14,49,12.50
2018,10,22,14,50,12.50
2018,10,22,14,51,12.40
2018,10,22,14,52,12.40
2018,10,22,14,53,12.40
2018,10,22,14,54,12.40
2018,10,22,14,55,12.40
2018,10,22,14,56,12.40
2018,10,22,14,57,12.40
2018,10,22,14,58,12.30
2018,10,22,14,59,12.40
2018,10,22,15,00,12.40
2018,10,22,15,01,12.40
2018,10,22,15,02,12.50
2018,10,22,15,03,12.60
2018,10,22,15,04,12.60
2018,10,22,15,05,12.60
2018,10,22,15,06,12.60
2018,10,22,15,07,12.50
2018,10,22,15,08,12.50
2018,10,22,15,09,12.40
2018,10,22,15,10,12.40
2018,10,22,15,11,12.30
2018,10,22,15,12,12.30
2018,10,22,15,13,12.30
2018,10,22,15,14,12.30
2018,10,22,15,15,12.30
2018,10,22,15,16,12.30
2018,10,22,15,17,12.30
2018,10,22,15,18,12.30
2018,10,22,15,19,12.30
2018,10,22,15,20,12.30
2018,10,22,15,21,12.30
2018,10,22,15,22,12.30
2018,10,22,15,23,12.30
2018,10,22,15,24,12.30
2018,10,22,15,25,12.30
2018,10,22,15,26,12.30
2018,10,22,15,27,12.30
2018,10,22,15,28,12.40
2018,10,22,15,29,12.50
2018,10,22,15,30,12.50
2018,10,22,15,31,12.40
2018,10,22,15,32,12.40
2018,10,22,15,33,12.40
2018,10,22,15,34,12.40
2018,10,22,15,35,12.50
2018,10,22,15,36,12.40
2018,10,22,15,37,12.50
2018,10,22,15,38,12.50
2018,10,22,15,39,12.50
2018,10,22,15,40,12.50
2018,10,22,15,41,12.60
2018,10,22,15,42,12.60
2018,10,22,15,43,12.60
2018,10,22,15,44,12.60
2018,10,22,15,45,12.60
2018,10,22,15,46,12.60
2018,10,22,15,47,12.60
2018,10,22,15,48,12.50
2018,10,22,15,49,12.50
2018,10,22,15,50,12.40
2018,10,22,15,51,12.40
2018,10,22,15,52,12.40
2018,10,22,15,53,12.40
2018,10,22,15,54,12.40
2018,10,22,15,55,12.40
2018,10,22,15,56,12.50
2018,10,22,15,57,12.50
2018,10,22,15,58,12.50
2018,10,22,15,59,12.50
2018,10,22,16,00,12.50
2018,10,22,16,01,12.50
2018,10,22,16,02,12.50
2018,10,22,16,03,12.40
2018,10,22,16,04,12.30
2018,10,22,16,05,12.30
2018,10,22,16,06,12.20
2018,10,22,16,07,12.20
2018,10,22,16,08,12.10
2018,10,22,16,09,12.10
2018,10,22,16,10,12.10
2018,10,22,16,11,12.10
2018,10,22,16,12,12.10
2018,10,22,16,13,12.10
2018,10,22,16,14,12.10
2018,10,22,16,15,12.10
2018,10,22,16,16,12.10
2018,10,22,16,17,12.10
2018,10,22,16,18,12.10
2018,10,22,16,19,12.10
2018,10,22,16,20,12.10
2018,10,22,16,21,12.20
2018,10,22,16,22,12.20
2018,10,22,16,23,12.20
2018,10,22,16,24,12.20
2018,10,22,16,25,12.20
2018,10,22,16,26,12.20
2018,10,22,16,27,12.20
2018,10,22,16,28,12.20
2018,10,22,16,29,12.20
2018,10,22,16,30,12.20
2018,10,22,16,31,12.20
2018,10,22,16,32,12.20
2018,10,22,16,33,12.20
2018,10,22,16,34,12.20
2018,10,22,16,35,12.30
2018,10,22,16,36,12.30
2018,10,22,16,37,12.30
2018,10,22,16,38,12.30
2018,10,22,16,39,12.30
2018,10,22,16,40,12.30
2018,10,22,16,41,12.30
2018,10,22,16,42,12.30
2018,10,22,16,43,12.30
2018,10,22,16,44,12.20
2018,10,22,16,45,12.20
2018,10,22,16,46,12.20
2018,10,22,16,47,12.20
2018,10,22,16,48,12.20
2018,10,22,16,49,12.20
2018,10,22,16,50,12.20
2018,10,22,16,51,12.20
2018,10,22,16,52,12.20
2018,10,22,16,53,12.20
2018,10,22,16,54,12.20
2018,10,22,16,55,12.30
2018,10,22,16,56,12.30
2018,10,22,16,57,12.20
2018,10,22,16,58,12.20
2018,10,22,16,59,12.20
2018,10,22,17,00,12.20
2018,10,22,17,01,12.20
2018,10,22,17,02,12.20
2018,10,22,17,03,12.20
2018,10,22,17,04,12.20
2018,10,22,17,05,12.20
2018,10,22,17,06,12.10
2018,10,22,17,07,12.10
2018,10,22,17,08,12.10
2018,10,22,17,09,12.10
2018,10,22,17,10,12.10
2018,10,22,17,11,12.10
2018,10,22,17,12,12.10
2018,10,22,17,13,12.10
2018,10,22,17,14,12.00
2018,10,22,17,15,12.00
2018,10,22,17,16,12.00
2018,10,22,17,17,12.00
2018,10,22,17,18,12.00
2018,10,22,17,19,12.00
2018,10,22,17,20,12.00
2018,10,22,17,21,12.00
2018,10,22,17,22,12.00
2018,10,22,17,23,12.00
2018,10,22,17,24,12.00
2018,10,22,17,25,12.00
2018,10,22,17,26,12.00
2018,10,22,17,27,11.90
2018,10,22,17,28,11.90
2018,10,22,17,29,11.90
2018,10,22,17,30,11.80
2018,10,22,17,31,11.80
2018,10,22,17,32,11.80
2018,10,22,17,33,11.80
2018,10,22,17,34,11.80
2018,10,22,17,35,11.80
2018,10,22,17,36,11.80
2018,10,22,17,37,11.80
2018,10,22,17,38,11.70
2018,10,22,17,39,11.70
2018,10,22,17,40,11.70
2018,10,22,17,41,11.70
2018,10,22,17,42,11.60
2018,10,22,17,43,11.60
2018,10,22,17,44,11.60
2018,10,22,17,45,11.60
2018,10,22,17,46,11.60
2018,10,22,17,47,11.40